NOK196 VTBD-VTPM

Flight info

Callsign NOK196
Flight time 0h 35m
Altitude 28000
Route OLVUK3C OLVUK Y26 NUVLU Y30 URGUM URGUM1W
Aircraft B738/M-SDE2E3FGHIRWXY/LB1

Departure

Time 2026-05-06 00:39
Airport Don Mueang International Airport (VTBD)

Arrival

Time 2026-05-06 01:14
Airport Mae Sot Airport (VTPM)
Time Latitude Longitude Altitude Speed Heading
2026-05-06 00:21 13.91789 100.60329 17 ft 0 kts 28°
2026-05-06 00:31 13.91773 100.60321 17 ft 7 kts 26°
2026-05-06 00:32 13.91749 100.60310 17 ft 8 kts 17°
2026-05-06 00:32 13.91723 100.60305 17 ft 8 kts 347°
2026-05-06 00:32 13.91706 100.60317 17 ft 7 kts 298°
2026-05-06 00:32 13.91693 100.60341 17 ft 8 kts 298°
2026-05-06 00:33 13.91680 100.60365 16 ft 8 kts 298°
2026-05-06 00:33 13.91668 100.60388 16 ft 8 kts 307°
2026-05-06 00:33 13.91649 100.60405 17 ft 8 kts 348°
2026-05-06 00:33 13.91624 100.60403 17 ft 7 kts 23°
2026-05-06 00:34 13.91601 100.60390 16 ft 7 kts 35°
2026-05-06 00:34 13.91579 100.60374 17 ft 6 kts 30°
2026-05-06 00:34 13.91577 100.60373 16 ft 0 kts 29°
2026-05-06 00:36 13.91640 100.60408 17 ft 14 kts 28°
2026-05-06 00:36 13.91731 100.60459 17 ft 16 kts 28°
2026-05-06 00:37 13.91834 100.60517 17 ft 18 kts 28°
2026-05-06 00:37 13.91916 100.60563 19 ft 0 kts 28°
2026-05-06 00:37 13.92432 100.61542 14 ft 0 kts 208°
2026-05-06 00:37 13.92412 100.61531 16 ft 14 kts 207°
2026-05-06 00:38 13.92151 100.61385 15 ft 72 kts 208°
2026-05-06 00:38 13.91546 100.61044 17 ft 125 kts 208°
2026-05-06 00:38 13.90639 100.60540 38 ft 168 kts 208°
2026-05-06 00:38 13.89599 100.59972 585 ft 171 kts 207°
2026-05-06 00:39 13.88520 100.59382 1094 ft 184 kts 207°
2026-05-06 00:39 13.87345 100.58729 1600 ft 198 kts 207°
2026-05-06 00:39 13.86359 100.57693 2001 ft 214 kts 248°
2026-05-06 00:39 13.86292 100.56177 2485 ft 225 kts 288°
2026-05-06 00:40 13.87102 100.54752 3095 ft 239 kts 305°
2026-05-06 00:40 13.88108 100.53310 3667 ft 256 kts 306°
2026-05-06 00:40 13.89182 100.51782 4214 ft 272 kts 314°
2026-05-06 00:40 13.90761 100.50719 5018 ft 275 kts 335°
2026-05-06 00:41 13.92550 100.49944 5786 ft 281 kts 340°
2026-05-06 00:41 13.94399 100.49253 6587 ft 285 kts 341°
2026-05-06 00:41 13.96282 100.48566 7377 ft 289 kts 341°
2026-05-06 00:41 13.98182 100.47844 8150 ft 292 kts 340°
2026-05-06 00:42 14.00092 100.47090 8908 ft 296 kts 339°
2026-05-06 00:42 14.02025 100.46316 9609 ft 301 kts 339°
2026-05-06 00:42 14.03988 100.45535 10287 ft 307 kts 340°
2026-05-06 00:42 14.06042 100.44725 10621 ft 324 kts 340°
2026-05-06 00:43 14.08204 100.43876 10953 ft 341 kts 340°
2026-05-06 00:43 14.10457 100.42991 11442 ft 351 kts 340°
2026-05-06 00:43 14.12752 100.42086 12094 ft 355 kts 340°
2026-05-06 00:43 14.15067 100.41172 12759 ft 358 kts 340°
2026-05-06 00:44 14.17405 100.40248 13430 ft 361 kts 340°
2026-05-06 00:44 14.19768 100.39316 14064 ft 365 kts 340°
2026-05-06 00:44 14.22153 100.38375 14702 ft 369 kts 340°
2026-05-06 00:44 14.24562 100.37425 15324 ft 372 kts 340°
2026-05-06 00:45 14.26992 100.36466 15930 ft 376 kts 340°
2026-05-06 00:45 14.29420 100.35507 16519 ft 379 kts 339°
2026-05-06 00:45 14.31895 100.34528 17098 ft 383 kts 339°
2026-05-06 00:45 14.34396 100.33539 17652 ft 386 kts 339°
2026-05-06 00:46 14.36914 100.32544 18195 ft 390 kts 339°
2026-05-06 00:46 14.39457 100.31539 18725 ft 393 kts 339°
2026-05-06 00:46 14.42017 100.30527 19255 ft 396 kts 339°
2026-05-06 00:46 14.44599 100.29506 19741 ft 399 kts 339°
2026-05-06 00:47 14.47200 100.28477 20217 ft 402 kts 339°
2026-05-06 00:47 14.49821 100.27441 20681 ft 405 kts 339°
2026-05-06 00:47 14.52457 100.26397 21129 ft 407 kts 339°
2026-05-06 00:47 14.55112 100.25346 21569 ft 410 kts 339°
2026-05-06 00:48 14.57790 100.24286 21991 ft 413 kts 339°
2026-05-06 00:48 14.60478 100.23222 22405 ft 415 kts 339°
2026-05-06 00:48 14.63186 100.22149 22790 ft 418 kts 339°
2026-05-06 00:48 14.65908 100.21071 23165 ft 420 kts 339°
2026-05-06 00:49 14.68639 100.20067 23525 ft 423 kts 341°
2026-05-06 00:49 14.71455 100.19154 23883 ft 425 kts 343°
2026-05-06 00:49 14.74298 100.18281 24219 ft 428 kts 343°
2026-05-06 00:49 14.77151 100.17378 24560 ft 430 kts 342°
2026-05-06 00:50 14.80008 100.16424 24906 ft 432 kts 341°
2026-05-06 00:50 14.82867 100.15445 25233 ft 434 kts 341°
2026-05-06 00:50 14.85736 100.14470 25548 ft 435 kts 342°
2026-05-06 00:50 14.88630 100.13505 25854 ft 438 kts 342°
2026-05-06 00:51 14.91537 100.12548 26150 ft 439 kts 342°
2026-05-06 00:51 14.94458 100.11584 26438 ft 441 kts 342°
2026-05-06 00:51 14.97385 100.10609 26719 ft 443 kts 342°
2026-05-06 00:51 15.00330 100.09624 26990 ft 445 kts 342°
2026-05-06 00:52 15.03282 100.08636 27256 ft 447 kts 342°
2026-05-06 00:52 15.06247 100.07647 27522 ft 448 kts 342°
2026-05-06 00:52 15.09219 100.06659 27781 ft 450 kts 342°
2026-05-06 00:52 15.12209 100.05664 27896 ft 452 kts 342°
2026-05-06 00:53 15.15196 100.04669 27914 ft 449 kts 342°
2026-05-06 00:53 15.18157 100.03681 27910 ft 445 kts 342°
2026-05-06 00:53 15.21102 100.02698 27907 ft 444 kts 342°
2026-05-06 00:53 15.24040 100.01717 27904 ft 444 kts 342°
2026-05-06 00:54 15.26983 100.00735 27917 ft 444 kts 342°
2026-05-06 00:54 15.29881 99.99768 27904 ft 444 kts 342°
2026-05-06 00:54 15.32819 99.98787 27911 ft 444 kts 341°
2026-05-06 00:54 15.35754 99.97806 27921 ft 444 kts 341°
2026-05-06 00:55 15.38694 99.96823 27904 ft 444 kts 341°
2026-05-06 00:55 15.41633 99.95840 27902 ft 444 kts 341°
2026-05-06 00:55 15.44572 99.94858 27915 ft 444 kts 341°
2026-05-06 00:55 15.47505 99.93877 27904 ft 444 kts 341°
2026-05-06 00:56 15.50444 99.92894 27915 ft 444 kts 341°
2026-05-06 00:56 16.21228 99.69183 27936 ft 444 kts 342°
2026-05-06 00:56 16.24124 99.68150 27907 ft 448 kts 339°
2026-05-06 00:56 16.27055 99.67019 27921 ft 451 kts 339°
2026-05-06 00:57 16.30028 99.65912 27392 ft 457 kts 342°
2026-05-06 00:57 16.33068 99.64994 26683 ft 452 kts 344°
2026-05-06 00:57 16.36086 99.64137 26055 ft 447 kts 343°
2026-05-06 00:57 16.39046 99.63206 25440 ft 441 kts 341°
2026-05-06 00:58 16.41937 99.62195 24822 ft 436 kts 340°
2026-05-06 00:58 16.44789 99.61167 24210 ft 431 kts 340°
2026-05-06 00:58 16.47618 99.60179 23591 ft 427 kts 341°
2026-05-06 00:58 16.50431 99.59237 22983 ft 423 kts 341°
2026-05-06 00:59 16.53190 99.58330 22379 ft 419 kts 341°
2026-05-06 00:59 16.55952 99.57412 21770 ft 415 kts 341°
2026-05-06 00:59 16.58686 99.56486 21149 ft 411 kts 341°
2026-05-06 00:59 16.61390 99.55562 20541 ft 407 kts 341°
2026-05-06 01:00 16.64077 99.54646 19924 ft 404 kts 341°
2026-05-06 01:00 16.66576 99.53387 19331 ft 397 kts 323°
2026-05-06 01:00 16.68499 99.51367 18724 ft 392 kts 303°
2026-05-06 01:00 16.69537 99.48769 18123 ft 388 kts 281°
2026-05-06 01:01 16.69748 99.45982 17520 ft 384 kts 272°
2026-05-06 01:01 16.69761 99.43201 16908 ft 381 kts 269°
2026-05-06 01:01 16.69698 99.40451 16309 ft 378 kts 269°
2026-05-06 01:01 16.69652 99.37725 15708 ft 374 kts 270°
2026-05-06 01:02 16.69656 99.35028 15110 ft 370 kts 270°
2026-05-06 01:02 16.69689 99.32356 14517 ft 366 kts 271°
2026-05-06 01:02 16.69721 99.29712 13928 ft 362 kts 270°
2026-05-06 01:02 16.69736 99.27101 13341 ft 358 kts 270°
2026-05-06 01:03 16.69740 99.24553 12795 ft 353 kts 270°
2026-05-06 01:03 16.69742 99.22005 12221 ft 349 kts 269°
2026-05-06 01:03 16.69749 99.19486 11639 ft 345 kts 270°
2026-05-06 01:03 16.69758 99.16999 11059 ft 341 kts 270°
2026-05-06 01:04 16.69768 99.14540 10482 ft 337 kts 270°
2026-05-06 01:04 16.69777 99.12131 10222 ft 323 kts 270°
2026-05-06 01:04 16.69784 99.09854 10106 ft 306 kts 270°
2026-05-06 01:04 16.69790 99.07692 9988 ft 291 kts 270°
2026-05-06 01:05 16.69795 99.05604 9676 ft 288 kts 270°
2026-05-06 01:05 16.69801 99.03524 9341 ft 282 kts 270°
2026-05-06 01:05 16.69806 99.01500 9014 ft 277 kts 270°
2026-05-06 01:05 16.69811 98.99498 8681 ft 274 kts 270°
2026-05-06 01:06 16.69816 98.97474 8353 ft 269 kts 270°
2026-05-06 01:06 16.69821 98.95545 8057 ft 264 kts 270°
2026-05-06 01:06 16.69825 98.93650 7759 ft 259 kts 270°
2026-05-06 01:06 16.69828 98.91785 7460 ft 255 kts 270°
2026-05-06 01:07 16.69833 98.89945 7165 ft 251 kts 270°
2026-05-06 01:07 16.69861 98.88133 6844 ft 249 kts 272°
2026-05-06 01:07 16.69996 98.86332 6467 ft 249 kts 275°
2026-05-06 01:07 16.70179 98.84540 6101 ft 248 kts 276°
2026-05-06 01:08 16.70346 98.82769 5740 ft 241 kts 272°
2026-05-06 01:08 16.70399 98.81061 5452 ft 230 kts 269°
2026-05-06 01:08 16.70374 98.79431 5186 ft 220 kts 268°
2026-05-06 01:08 16.70331 98.77873 4918 ft 210 kts 268°
2026-05-06 01:09 16.70296 98.76385 4666 ft 201 kts 268°
2026-05-06 01:09 16.70273 98.74962 4421 ft 192 kts 269°
2026-05-06 01:09 16.70255 98.73620 4204 ft 184 kts 269°
2026-05-06 01:09 16.70237 98.72264 3983 ft 186 kts 269°
2026-05-06 01:10 16.70219 98.70933 3774 ft 186 kts 269°
2026-05-06 01:10 16.70201 98.69593 3543 ft 184 kts 269°
2026-05-06 01:10 16.70182 98.68276 3267 ft 178 kts 269°
2026-05-06 01:10 16.70165 98.67024 3011 ft 166 kts 268°
2026-05-06 01:11 16.70151 98.65880 2780 ft 152 kts 268°
2026-05-06 01:11 16.70135 98.64788 2551 ft 150 kts 271°
2026-05-06 01:11 16.70119 98.63670 2328 ft 153 kts 271°
2026-05-06 01:11 16.70108 98.62940 2188 ft 152 kts 271°
2026-05-06 01:12 16.70091 98.61834 1951 ft 151 kts 271°
2026-05-06 01:12 16.70066 98.60333 1649 ft 157 kts 271°
2026-05-06 01:12 16.70055 98.59595 1485 ft 152 kts 269°
2026-05-06 01:12 16.70077 98.58489 1241 ft 150 kts 279°
2026-05-06 01:13 16.70054 98.57421 1021 ft 150 kts 265°
2026-05-06 01:13 16.70008 98.56357 802 ft 142 kts 269°
2026-05-06 01:13 16.69996 98.55424 688 ft 96 kts 269°
2026-05-06 01:13 16.69991 98.54962 688 ft 50 kts 268°
2026-05-06 01:14 16.70002 98.54645 692 ft 9 kts 317°
2026-05-06 01:14 16.70056 98.54634 693 ft 8 kts 358°
2026-05-06 01:14 16.70111 98.54631 686 ft 8 kts 355°
2026-05-06 01:15 16.70151 98.54604 692 ft 6 kts 309°
2026-05-06 01:15 16.70153 98.54566 692 ft 5 kts 269°
2026-05-06 01:15 16.70168 98.54545 692 ft 3 kts 335°
2026-05-06 01:15 16.70191 98.54542 692 ft 1 kts 359°
2026-05-06 01:16 16.70199 98.54542 692 ft 1 kts 360°